GW5240 Weather Reports


time (UTC)temp
F
wind
direction
speed
knots
gust
knots
rain 1hr
in
rain 24hr
in
rain mn
in
humidity
%
barometer
mb
20260503054246 57 167 0.0 0.0 0.00 0.00 0.00 48 1007.8
20260503053744 57 182 0.0 1.7 0.00 0.00 0.00 48 1007.9
20260503053242 57 170 0.0 1.7 0.00 0.00 0.00 47 1007.9
20260503052738 57 193 0.0 1.7 0.00 0.00 0.00 48 1008.0
20260503052235 57 179 0.9 1.7 0.00 0.00 0.00 48 1008.1
20260503051729 56 174 0.0 1.7 0.00 0.00 0.00 48 1008.2
20260503051228 57 186 0.9 1.7 0.00 0.00 0.00 48 1008.0
20260503050724 57 174 0.0 0.0 0.00 0.00 0.00 47 1008.0
20260503050220 57 172 0.0 0.0 0.00 0.00 0.00 47 1008.0
20260503045718 57 173 0.9 2.6 0.00 0.00 0.00 46 1008.0
20260503045216 57 197 1.7 4.3 0.00 0.00 0.00 47 1008.0
20260503044712 57 174 0.0 0.0 0.00 0.00 0.00 46 1008.0
20260503044210 58 164 0.0 0.0 0.00 0.00 0.00 46 1008.2
20260503043706 58 173 0.9 1.7 0.00 0.00 0.00 45 1008.2
20260503043204 58 167 0.0 1.7 0.00 0.00 0.00 45 1008.3
20260503042659 59 163 0.0 0.0 0.00 0.00 0.00 45 1008.2
20260503042156 59 173 0.9 1.7 0.00 0.00 0.00 45 1008.5
20260503041652 58 170 1.7 2.6 0.00 0.00 0.00 45 1008.5
20260503041150 58 172 0.0 0.0 0.00 0.00 0.00 46 1008.7
20260503040647 58 177 0.9 1.7 0.00 0.00 0.00 46 1008.7
20260503040145 58 174 0.0 1.7 0.00 0.00 0.00 46 1008.7
20260503035641 58 171 0.0 0.0 0.00 0.00 0.00 46 1008.8
20260503035139 59 169 0.0 0.0 0.00 0.00 0.00 45 1008.9
20260503034636 59 179 0.0 1.7 0.00 0.00 0.00 44 1009.0
20260503034133 59 177 0.0 1.7 0.00 0.00 0.00 46 1009.2
20260503033630 59 172 0.0 0.0 0.00 0.00 0.00 45 1009.2
20260503033128 59 167 0.0 0.0 0.00 0.00 0.00 44 1009.5
20260503032626 59 168 0.0 0.0 0.00 0.00 0.00 43 1009.4
20260503032124 60 172 0.0 0.0 0.00 0.00 0.00 43 1009.4
20260503031621 60 170 0.0 0.0 0.00 0.00 0.00 43 1009.6
20260503031119 61 166 1.7 2.6 0.00 0.00 0.00 42 1009.7
20260503030615 61 167 0.0 0.0 0.00 0.00 0.00 41 1009.7
20260503030112 61 179 1.7 1.7 0.00 0.00 0.00 41 1010.0
20260503025609 61 185 1.7 2.6 0.00 0.00 0.00 42 1010.0
20260503025107 61 169 0.0 0.0 0.00 0.00 0.00 42 1010.2
20260503024602 61 168 0.9 1.7 0.00 0.00 0.00 41 1010.3
20260503024100 62 172 0.0 0.0 0.00 0.00 0.00 42 1010.5
20260503023556 62 187 1.7 2.6 0.00 0.00 0.00 41 1010.4
20260503023054 61 165 0.9 1.7 0.00 0.00 0.00 41 1010.7
20260503022549 62 178 0.0 0.0 0.00 0.00 0.00 41 1010.4
20260503022044 62 196 1.7 2.6 0.00 0.00 0.00 41 1010.4
20260503021541 62 181 0.0 0.0 0.00 0.00 0.00 40 1010.5
20260503021038 62 155 0.0 0.0 0.00 0.00 0.00 40 1010.6
20260503020535 62 165 0.0 0.0 0.00 0.00 0.00 39 1010.8
20260503020032 63 181 2.6 2.6 0.00 0.00 0.00 38 1010.7
20260503015529 63 139 0.0 0.0 0.00 0.00 0.00 38 1010.7
20260503015026 63 260 0.9 1.7 0.00 0.00 0.00 38 1010.6
20260503014522 63 157 0.9 1.7 0.00 0.00 0.00 37 1010.6
20260503014021 63 159 0.0 0.0 0.00 0.00 0.00 37 1010.8
20260503013517 63 179 0.0 1.7 0.00 0.00 0.00 37 1010.7
20260503013015 63 161 1.7 1.7 0.00 0.00 0.00 36 1010.7
20260503012512 63 169 0.0 0.0 0.00 0.00 0.00 37 1010.5
20260503012008 63 271 0.9 2.6 0.00 0.00 0.00 37 1010.7
20260503011506 63 174 0.0 0.0 0.00 0.00 0.00 38 1010.7
20260503011003 63 240 0.9 1.7 0.00 0.00 0.00 37 1010.8
20260503010458 63 178 0.9 1.7 0.00 0.00 0.00 38 1010.7
20260503005956 64 184 0.0 0.0 0.00 0.00 0.00 37 1010.9
20260503005453 64 43 1.7 1.7 0.00 0.00 0.00 37 1010.8
20260503004950 64 190 0.0 1.7 0.00 0.00 0.00 37 1010.8
20260503004446 64 174 0.9 1.7 0.00 0.00 0.00 37 1010.7
20260503003944 64 134 3.5 4.3 0.00 0.00 0.00 36 1010.7
20260503003441 64 139 7.0 12.2 0.00 0.00 0.00 36 1010.7
20260503002938 64 197 3.5 4.3 0.00 0.00 0.00 37 1010.8
20260503002435 64 168 1.7 2.6 0.00 0.00 0.00 37 1010.9
20260503001931 64 167 0.0 0.0 0.00 0.00 0.00 38 1010.9
20260503001428 64 226 0.0 1.7 0.00 0.00 0.00 38 1011.0
20260503000926 64 168 0.0 0.0 0.00 0.00 0.00 39 1010.8
20260503000422 64 160 1.7 2.6 0.00 0.00 0.00 38 1011.0
20260502235920 64 137 0.9 1.7 0.00 0.00 0.00 38 1010.9
20260502235416 65 152 1.7 2.6 0.00 0.00 0.00 38 1011.3
20260502234914 65 179 3.5 4.3 0.00 0.00 0.00 36 1011.2
20260502234411 65 17 1.7 4.3 0.00 0.00 0.00 35 1011.1
20260502233908 66 193 4.3 6.1 0.00 0.00 0.00 34 1011.0
20260502233403 66 164 3.5 4.3 0.00 0.00 0.00 34 1010.8
20260502232900 66 76 1.7 2.6 0.00 0.00 0.00 34 1011.2
20260502232356 66 169 0.0 0.0 0.00 0.00 0.00 34 1011.3
20260502231853 66 173 0.0 0.0 0.00 0.00 0.00 34 1011.0
20260502231351 66 166 1.7 2.6 0.00 0.00 0.00 32 1011.0
20260502230849 66 182 1.7 2.6 0.00 0.00 0.00 32 1011.1
20260502230347 67 176 1.7 2.6 0.00 0.00 0.00 32 1011.1
20260502225843 67 156 0.9 1.7 0.00 0.00 0.00 33 1011.1
20260502225340 67 115 1.7 1.7 0.00 0.00 0.00 34 1011.2
20260502224837 67 133 1.7 2.6 0.00 0.00 0.00 33 1011.1
20260502224333 67 200 2.6 6.1 0.00 0.00 0.00 32 1011.3
20260502223831 67 202 1.7 4.3 0.00 0.00 0.00 32 1011.5
20260502223329 66 152 2.6 4.3 0.00 0.00 0.00 33 1011.4
20260502222826 66 176 0.9 1.7 0.00 0.00 0.00 34 1011.4
20260502222323 66 189 0.0 0.0 0.00 0.00 0.00 34 1011.5
20260502221819 66 173 0.0 0.0 0.00 0.00 0.00 34 1011.6
20260502221315 66 171 0.9 1.7 0.00 0.00 0.00 33 1011.7
20260502220813 66 160 2.6 4.3 0.00 0.00 0.00 33 1011.8
20260502220308 66 179 0.0 1.7 0.00 0.00 0.00 33 1012.0
20260502215805 67 192 0.9 2.6 0.00 0.00 0.00 33 1011.7
20260502215304 67 303 3.5 4.3 0.00 0.00 0.00 32 1012.0
20260502214800 67 221 1.7 2.6 0.00 0.00 0.00 32 1012.0
20260502214256 66 177 0.0 1.7 0.00 0.00 0.00 33 1012.0
20260502213753 68 28 4.3 6.1 0.00 0.00 0.00 31 1012.1
20260502213251 68 346 1.7 2.6 0.00 0.00 0.00 31 1012.0
20260502212749 68 5 3.5 7.8 0.00 0.00 0.00 32 1012.1
20260502212247 68 296 3.5 7.8 0.00 0.00 0.00 32 1012.3
20260502211743 69 194 3.5 4.3 0.00 0.00 0.00 30 1012.4
20260502211240 67 248 2.6 2.6 0.00 0.00 0.00 31 1012.6
20260502210737 69 164 3.5 4.3 0.00 0.00 0.00 30 1012.6
20260502210234 70 182 2.6 4.3 0.00 0.00 0.00 29 1012.7
20260502205732 70 241 3.5 4.3 0.00 0.00 0.00 30 1012.9
20260502205227 69 175 1.7 2.6 0.00 0.00 0.00 30 1012.8
20260502204725 69 213 1.7 2.6 0.00 0.00 0.00 31 1013.2
20260502204222 68 210 6.1 7.8 0.00 0.00 0.00 31 1013.1
20260502203720 68 213 1.7 2.6 0.00 0.00 0.00 32 1013.2
20260502203218 69 192 1.7 2.6 0.00 0.00 0.00 31 1013.3
20260502202711 68 198 2.6 4.3 0.00 0.00 0.00 32 1013.5
20260502202210 68 138 2.6 4.3 0.00 0.00 0.00 30 1013.5
20260502201707 68 153 1.7 2.6 0.00 0.00 0.00 31 1013.6
20260502201204 68 314 4.3 4.3 0.00 0.00 0.00 31 1013.8
20260502200659 68 118 3.5 4.3 0.00 0.00 0.00 32 1014.0
20260502200156 68 192 3.5 7.8 0.00 0.00 0.00 30 1014.0
20260502195655 67 193 1.7 1.7 0.00 0.00 0.00 33 1014.1
20260502195150 67 210 3.5 6.1 0.00 0.00 0.00 33 1014.2
20260502194647 67 242 2.6 4.3 0.00 0.00 0.00 31 1014.3
20260502194144 67 203 2.6 6.1 0.00 0.00 0.00 30 1014.3
20260502193641 66 174 0.0 1.7 0.00 0.00 0.00 34 1014.7
20260502193138 64 205 2.6 4.3 0.00 0.00 0.00 33 1014.5
20260502192633 64 191 1.7 2.6 0.00 0.00 0.00 33 1014.7
20260502192131 64 203 0.9 1.7 0.00 0.00 0.00 32 1015.0
20260502191627 65 121 1.7 2.6 0.00 0.00 0.00 31 1015.1
20260502191125 67 211 5.2 8.7 0.00 0.00 0.00 30 1015.0
20260502190622 67 197 1.7 2.6 0.00 0.00 0.00 30 1015.1
20260502190120 66 215 1.7 2.6 0.00 0.00 0.00 33 1015.1
20260502185614 65 172 1.7 2.6 0.00 0.00 0.00 33 1015.3
20260502185111 65 205 4.3 6.1 0.00 0.00 0.00 31 1015.4
20260502184608 65 286 1.7 2.6 0.00 0.00 0.00 33 1015.5
20260502184103 64 193 0.9 1.7 0.00 0.00 0.00 35 1015.5
20260502183559 63 170 2.6 2.6 0.00 0.00 0.00 33 1015.8
20260502183056 64 192 0.9 2.6 0.00 0.00 0.00 32 1016.0
20260502182551 63 40 4.3 6.1 0.00 0.00 0.00 34 1015.8
20260502182047 64 189 2.6 4.3 0.00 0.00 0.00 34 1016.1
20260502181545 63 213 6.1 7.8 0.00 0.00 0.00 33 1015.8
20260502181044 62 13 3.5 4.3 0.00 0.00 0.00 33 1016.0
20260502180541 62 93 3.5 4.3 0.00 0.00 0.00 33 1016.3
20260502170459 60 201 4.3 6.1 0.00 0.00 0.00 34 1017.4
20260502163942 60 334 2.6 4.3 0.00 0.00 0.00 35 1017.6
20260502163438 60 177 2.6 4.3 0.00 0.00 0.00 35 1017.8
20260502162936 60 208 4.3 6.1 0.00 0.00 0.00 33 1017.8
20260502162433 59 190 0.9 1.7 0.00 0.00 0.00 38 1017.9
20260502161930 59 180 4.3 7.8 0.00 0.00 0.00 34 1017.9
20260502161426 59 345 7.8 8.7 0.00 0.00 0.00 35 1018.0
20260502160924 59 208 4.3 7.8 0.00 0.00 0.00 35 1017.9
20260502160422 58 183 3.5 4.3 0.00 0.00 0.00 36 1018.0
20260502151901 57 191 2.6 2.6 0.00 0.00 0.00 39 1018.3
20260502151357 57 180 1.7 2.6 0.00 0.00 0.00 40 1018.5
20260502150855 57 163 2.6 4.3 0.00 0.00 0.00 41 1018.6
20260502150351 56 171 0.9 1.7 0.00 0.00 0.00 39 1018.4
20260502130739 44 180 0.0 0.0 0.00 0.00 0.00 61 1019.2
20260502130237 43 166 0.0 0.0 0.00 0.00 0.00 61 1019.1
20260502123723 41 192 1.7 2.6 0.00 0.00 0.00 66 1019.1
20260502123219 41 179 0.0 0.0 0.00 0.00 0.00 67 1019.1
20260502122716 40 172 0.9 1.7 0.00 0.00 0.00 67 1018.9
20260502122212 40 170 0.0 0.0 0.00 0.00 0.00 68 1019.0
20260502121711 38 171 0.0 0.0 0.00 0.00 0.00 71 1019.1
20260502121208 37 175 0.0 0.0 0.00 0.00 0.00 74 1018.8
20260502120704 37 169 0.0 0.0 0.00 0.00 0.00 76 1018.7
20260502120201 36 175 0.0 0.0 0.00 0.00 0.00 76 1018.9
20260502115659 36 170 0.0 0.0 0.00 0.00 0.00 75 1019.0
20260502115155 36 162 0.0 0.0 0.00 0.00 0.00 75 1018.9
20260502114651 36 165 0.0 0.0 0.00 0.00 0.00 75 1019.0
20260502114149 35 160 0.0 0.0 0.00 0.00 0.00 75 1018.9
20260502113646 35 170 0.0 0.0 0.00 0.00 0.00 75 1018.8
20260502113144 35 169 0.0 0.0 0.00 0.00 0.00 73 1018.6
20260502112642 36 169 0.0 0.0 0.00 0.00 0.00 72 1018.8
20260502112139 36 169 0.0 0.0 0.00 0.00 0.00 73 1018.8
20260502111636 36 179 0.0 0.0 0.00 0.00 0.00 72 1018.7
20260502111134 36 172 0.0 0.0 0.00 0.00 0.00 72 1018.6
20260502110631 36 169 0.0 0.0 0.00 0.00 0.00 72 1018.6
20260502110128 36 175 0.0 0.0 0.00 0.00 0.00 72 1018.8
20260502105626 36 175 0.0 0.0 0.00 0.00 0.00 72 1018.5
20260502105123 36 176 0.0 0.0 0.00 0.00 0.00 71 1018.5
20260502104620 36 177 0.0 0.0 0.00 0.00 0.00 71 1018.7
20260502104117 36 171 0.0 0.0 0.00 0.00 0.00 70 1018.7
20260502103615 36 177 0.0 0.0 0.00 0.00 0.00 70 1018.6
20260502103113 37 174 0.0 0.0 0.00 0.00 0.00 69 1018.7
20260502102609 37 177 0.0 0.0 0.00 0.00 0.00 69 1018.6
20260502102106 37 167 0.0 0.0 0.00 0.00 0.00 69 1018.4
20260502101604 37 176 0.0 0.0 0.00 0.00 0.00 68 1018.5
20260502101102 37 170 0.0 0.0 0.00 0.00 0.00 68 1018.5
20260502100600 37 157 0.0 0.0 0.00 0.00 0.00 68 1018.5
20260502091032 39 180 0.0 0.0 0.00 0.00 0.00 64 1018.4
20260502090529 39 180 0.0 0.0 0.00 0.00 0.00 63 1018.4
20260502071424 41 164 0.0 0.0 0.00 0.00 0.00 61 1018.7
20260502070922 40 182 0.0 0.0 0.00 0.00 0.00 62 1018.8
20260502070420 40 173 0.0 0.0 0.00 0.00 0.00 63 1018.7
20260502065918 40 176 0.0 0.0 0.00 0.00 0.00 63 1018.9
20260502065416 40 172 0.0 0.0 0.00 0.00 0.00 62 1018.6
20260502064914 41 176 0.0 0.0 0.00 0.00 0.00 62 1018.8
20260502064411 41 173 0.0 0.0 0.00 0.00 0.00 62 1018.9
20260502063908 41 180 0.0 0.0 0.00 0.00 0.00 61 1018.9
20260502063406 41 182 0.0 0.0 0.00 0.00 0.00 61 1018.9
20260502062903 41 175 0.0 0.0 0.00 0.00 0.00 60 1019.0
20260502062400 41 173 0.0 0.0 0.00 0.00 0.00 60 1018.9
20260502061859 42 175 0.0 0.0 0.00 0.00 0.00 60 1018.9
20260502061357 42 174 0.0 0.0 0.00 0.00 0.00 59 1018.9
20260502060852 42 177 0.0 0.0 0.00 0.00 0.00 60 1019.0
20260502060347 42 176 0.0 0.0 0.00 0.00 0.00 60 1018.8
20260502055845 41 179 0.0 0.0 0.00 0.00 0.00 60 1019.0
20260502055343 41 184 0.0 0.0 0.00 0.00 0.00 59 1019.1
20260502054842 41 172 0.0 0.0 0.00 0.00 0.00 60 1019.2